Time,TemperatureF,DewpointF,PressureIn,WindDirection,WindDirectionDegrees,WindSpeedMPH,WindSpeedGustMPH,Humidity,HourlyPrecipIn,Conditions,Clouds,dailyrainin,SoftwareType,DateUTC
2013-04-03 00:00:00,36.2,15.8,30.01,West,280,5.0,14.0,43,0.00,,,0.00,Wunderground v.1.15,2013-04-03 04:00:00,
2013-04-03 00:05:00,35.9,16.1,30.01,West,276,5.0,14.0,44,0.00,,,0.00,Wunderground v.1.15,2013-04-03 04:05:00,
2013-04-03 00:10:00,35.9,16.1,30.01,WNW,293,5.0,5.0,44,0.00,,,0.00,Wunderground v.1.15,2013-04-03 04:10:00,
2013-04-03 00:15:00,35.9,15.5,30.01,WSW,243,6.0,6.0,43,0.00,,,0.00,Wunderground v.1.15,2013-04-03 04:15:00,
2013-04-03 00:20:00,35.9,15.5,30.01,WNW,283,6.0,6.0,43,0.00,,,0.00,Wunderground v.1.15,2013-04-03 04:20:00,
2013-04-03 00:25:00,35.7,15.9,30.02,West,275,5.0,14.0,44,0.00,,,0.00,Wunderground v.1.15,2013-04-03 04:25:00,
2013-04-03 00:30:00,35.6,16.3,30.02,WNW,289,4.0,4.0,45,0.00,,,0.00,Wunderground v.1.15,2013-04-03 04:30:00,
2013-04-03 00:35:00,35.7,16.4,30.02,West,270,5.0,5.0,45,0.00,,,0.00,Wunderground v.1.15,2013-04-03 04:35:00,
2013-04-03 00:40:00,35.7,16.4,30.01,West,259,5.0,14.0,45,0.00,,,0.00,Wunderground v.1.15,2013-04-03 04:40:00,
2013-04-03 00:45:00,35.6,16.8,30.01,West,276,4.0,14.0,46,0.00,,,0.00,Wunderground v.1.15,2013-04-03 04:45:00,
2013-04-03 00:50:00,35.5,16.7,30.01,West,270,4.0,14.0,46,0.00,,,0.00,Wunderground v.1.15,2013-04-03 04:50:00,
2013-04-03 00:55:00,35.6,16.3,30.02,SW,224,4.0,14.0,45,0.00,,,0.00,Wunderground v.1.15,2013-04-03 04:55:00,
2013-04-03 01:00:00,35.9,15.0,30.01,West,272,5.0,11.0,42,0.00,,,0.00,Wunderground v.1.15,2013-04-03 05:00:00,
2013-04-03 01:10:00,36.3,14.8,30.01,WSW,253,7.0,7.0,41,0.00,,,0.00,Wunderground v.1.15,2013-04-03 05:10:00,
2013-04-03 01:15:00,36.3,14.3,30.01,West,266,7.0,11.0,40,0.00,,,0.00,Wunderground v.1.15,2013-04-03 05:15:00,
2013-04-03 01:20:00,36.5,15.0,30.02,WSW,245,8.0,14.0,41,0.00,,,0.00,Wunderground v.1.15,2013-04-03 05:20:00,
2013-04-03 01:25:00,36.5,15.0,30.01,West,269,9.0,14.0,41,0.00,,,0.00,Wunderground v.1.15,2013-04-03 05:25:00,
2013-04-03 01:30:00,36.6,13.9,30.02,NNW,330,10.0,10.0,39,0.00,,,0.00,Wunderground v.1.15,2013-04-03 05:30:00,
2013-04-03 01:35:00,36.6,14.5,30.01,WNW,296,9.0,11.0,40,0.00,,,0.00,Wunderground v.1.15,2013-04-03 05:35:00,
2013-04-03 01:45:00,36.5,14.4,30.02,West,269,8.0,11.0,40,0.00,,,0.00,Wunderground v.1.15,2013-04-03 05:45:00,
2013-04-03 01:50:00,36.4,14.3,30.02,WNW,282,7.0,7.0,40,0.00,,,0.00,Wunderground v.1.15,2013-04-03 05:50:00,
2013-04-03 01:55:00,36.4,14.9,30.02,West,278,8.0,8.0,41,0.00,,,0.00,Wunderground v.1.15,2013-04-03 05:55:00,
2013-04-03 02:00:00,36.2,14.7,30.02,NW,306,6.0,24.0,41,0.00,,,0.00,Wunderground v.1.15,2013-04-03 06:00:00,
2013-04-03 02:10:00,35.9,15.5,30.02,NW,304,5.0,24.0,43,0.00,,,0.00,Wunderground v.1.15,2013-04-03 06:10:00,
2013-04-03 02:20:00,35.9,15.5,30.01,North,7,6.0,6.0,43,0.00,,,0.00,Wunderground v.1.15,2013-04-03 06:20:00,
2013-04-03 02:25:00,35.9,15.5,30.01,NW,304,6.0,8.0,43,0.00,,,0.00,Wunderground v.1.15,2013-04-03 06:25:00,
2013-04-03 02:30:00,35.8,16.0,30.01,WSW,255,6.0,6.0,44,0.00,,,0.00,Wunderground v.1.15,2013-04-03 06:30:00,
2013-04-03 02:35:00,35.8,16.0,30.01,WNW,291,6.0,24.0,44,0.00,,,0.00,Wunderground v.1.15,2013-04-03 06:35:00,
2013-04-03 02:40:00,35.7,15.4,30.01,WNW,297,6.0,6.0,43,0.00,,,0.00,Wunderground v.1.15,2013-04-03 06:40:00,
2013-04-03 02:45:00,35.8,16.0,30.01,NW,304,7.0,7.0,44,0.00,,,0.00,Wunderground v.1.15,2013-04-03 06:45:00,
2013-04-03 02:50:00,35.6,16.8,30.01,NNW,337,7.0,7.0,46,0.00,,,0.00,Wunderground v.1.15,2013-04-03 06:50:00,
2013-04-03 02:55:00,35.3,17.1,30.01,West,266,6.0,24.0,47,0.00,,,0.00,Wunderground v.1.15,2013-04-03 06:55:00,
2013-04-03 03:00:00,35.1,17.4,30.00,WSW,258,4.0,14.0,48,0.00,,,0.00,Wunderground v.1.15,2013-04-03 07:00:00,
2013-04-03 03:10:00,34.9,17.2,30.00,WSW,258,5.0,5.0,48,0.00,,,0.00,Wunderground v.1.15,2013-04-03 07:10:00,
2013-04-03 03:20:00,34.6,17.4,30.01,WNW,285,5.0,5.0,49,0.00,,,0.00,Wunderground v.1.15,2013-04-03 07:20:00,
2013-04-03 03:25:00,34.6,16.9,30.01,WNW,288,5.0,14.0,48,0.00,,,0.00,Wunderground v.1.15,2013-04-03 07:25:00,
2013-04-03 03:30:00,34.7,16.0,30.01,West,263,6.0,14.0,46,0.00,,,0.00,Wunderground v.1.15,2013-04-03 07:30:00,
2013-04-03 03:35:00,34.7,15.5,30.01,WNW,296,6.0,14.0,45,0.00,,,0.00,Wunderground v.1.15,2013-04-03 07:35:00,
2013-04-03 03:40:00,34.6,15.4,30.01,NW,326,6.0,14.0,45,0.00,,,0.00,Wunderground v.1.15,2013-04-03 07:40:00,
2013-04-03 03:45:00,34.6,15.4,30.01,NW,321,7.0,14.0,45,0.00,,,0.00,Wunderground v.1.15,2013-04-03 07:45:00,
2013-04-03 03:55:00,34.5,15.3,30.01,NW,313,8.0,14.0,45,0.00,,,0.00,Wunderground v.1.15,2013-04-03 07:55:00,
2013-04-03 04:00:00,34.4,15.2,30.01,West,272,9.0,9.0,45,0.00,,,0.00,Wunderground v.1.15,2013-04-03 08:00:00,
2013-04-03 04:10:00,34.2,15.0,30.01,WSW,255,9.0,9.0,45,0.00,,,0.00,Wunderground v.1.15,2013-04-03 08:10:00,
2013-04-03 04:15:00,34.3,15.1,30.01,WSW,244,11.0,11.0,45,0.00,,,0.00,Wunderground v.1.15,2013-04-03 08:15:00,
2013-04-03 04:25:00,34.1,14.9,30.01,WNW,302,9.0,16.0,45,0.00,,,0.00,Wunderground v.1.15,2013-04-03 08:25:00,
2013-04-03 04:30:00,34.0,15.9,30.01,West,264,8.0,8.0,47,0.00,,,0.00,Wunderground v.1.15,2013-04-03 08:30:00,
2013-04-03 04:35:00,33.9,15.8,30.02,WNW,288,8.0,16.0,47,0.00,,,0.00,Wunderground v.1.15,2013-04-03 08:35:00,
2013-04-03 04:40:00,33.9,15.8,30.01,WSW,250,8.0,8.0,47,0.00,,,0.00,Wunderground v.1.15,2013-04-03 08:40:00,
2013-04-03 04:45:00,33.9,15.3,30.01,NNW,329,9.0,11.0,46,0.00,,,0.00,Wunderground v.1.15,2013-04-03 08:45:00,
2013-04-03 04:50:00,33.9,15.3,30.01,WSW,248,9.0,9.0,46,0.00,,,0.00,Wunderground v.1.15,2013-04-03 08:50:00,
2013-04-03 05:00:00,33.9,14.8,30.02,West,261,8.0,8.0,45,0.00,,,0.00,Wunderground v.1.15,2013-04-03 09:00:00,
2013-04-03 05:10:00,33.9,15.3,30.02,West,278,8.0,20.0,46,0.00,,,0.00,Wunderground v.1.15,2013-04-03 09:10:00,
2013-04-03 05:15:00,33.9,14.8,30.02,West,259,10.0,20.0,45,0.00,,,0.00,Wunderground v.1.15,2013-04-03 09:15:00,
2013-04-03 05:20:00,33.8,15.2,30.02,West,269,10.0,10.0,46,0.00,,,0.00,Wunderground v.1.15,2013-04-03 09:20:00,
2013-04-03 05:30:00,33.7,15.1,30.02,NW,311,9.0,20.0,46,0.00,,,0.00,Wunderground v.1.15,2013-04-03 09:30:00,
2013-04-03 05:35:00,33.6,14.5,30.03,West,278,10.0,20.0,45,0.00,,,0.00,Wunderground v.1.15,2013-04-03 09:35:00,
2013-04-03 05:40:00,33.5,14.9,30.03,WNW,285,11.0,11.0,46,0.00,,,0.00,Wunderground v.1.15,2013-04-03 09:40:00,
2013-04-03 05:45:00,33.5,15.4,30.03,WNW,293,10.0,20.0,47,0.00,,,0.00,Wunderground v.1.15,2013-04-03 09:45:00,
2013-04-03 05:50:00,33.4,15.8,30.03,WNW,286,9.0,20.0,48,0.00,,,0.00,Wunderground v.1.15,2013-04-03 09:50:00,
2013-04-03 05:55:00,33.2,15.6,30.03,WNW,288,8.0,20.0,48,0.00,,,0.00,Wunderground v.1.15,2013-04-03 09:55:00,
2013-04-03 06:00:00,33.2,15.1,30.03,WSW,252,9.0,9.0,47,0.00,,,0.00,Wunderground v.1.15,2013-04-03 10:00:00,
2013-04-03 06:10:00,33.0,15.4,30.04,West,278,7.0,7.0,48,0.00,,,0.00,Wunderground v.1.15,2013-04-03 10:10:00,
2013-04-03 06:15:00,32.9,15.8,30.04,WNW,300,7.0,8.0,49,0.00,,,0.00,Wunderground v.1.15,2013-04-03 10:15:00,
2013-04-03 06:20:00,33.1,16.0,30.04,WSW,256,8.0,8.0,49,0.00,,,0.00,Wunderground v.1.15,2013-04-03 10:20:00,
2013-04-03 06:25:00,33.1,16.0,30.04,West,263,9.0,9.0,49,0.00,,,0.00,Wunderground v.1.15,2013-04-03 10:25:00,
2013-04-03 06:35:00,33.0,16.4,30.05,NW,324,7.0,21.0,50,0.00,,,0.00,Wunderground v.1.15,2013-04-03 10:35:00,
2013-04-03 06:40:00,33.1,15.5,30.05,WNW,302,6.0,21.0,48,0.00,,,0.00,Wunderground v.1.15,2013-04-03 10:40:00,
2013-04-03 06:45:00,33.2,16.1,30.05,WSW,237,7.0,21.0,49,0.00,,,0.00,Wunderground v.1.15,2013-04-03 10:45:00,
2013-04-03 06:50:00,33.3,15.7,30.05,West,281,7.0,7.0,48,0.00,,,0.00,Wunderground v.1.15,2013-04-03 10:50:00,
2013-04-03 06:55:00,33.4,15.8,30.05,NW,315,8.0,8.0,48,0.00,,,0.00,Wunderground v.1.15,2013-04-03 10:55:00,
2013-04-03 07:00:00,33.5,16.8,30.05,NW,313,9.0,9.0,50,0.00,,,0.00,Wunderground v.1.15,2013-04-03 11:00:00,
2013-04-03 07:10:00,33.6,16.5,30.06,WNW,291,8.0,15.0,49,0.00,,,0.00,Wunderground v.1.15,2013-04-03 11:10:00,
2013-04-03 07:15:00,33.7,16.5,30.06,WNW,284,9.0,15.0,49,0.00,,,0.00,Wunderground v.1.15,2013-04-03 11:15:00,
2013-04-03 07:20:00,33.7,16.5,30.06,West,267,8.0,8.0,49,0.00,,,0.00,Wunderground v.1.15,2013-04-03 11:20:00,
2013-04-03 07:25:00,33.8,16.6,30.06,WNW,290,9.0,18.0,49,0.00,,,0.00,Wunderground v.1.15,2013-04-03 11:25:00,
2013-04-03 07:30:00,33.9,16.7,30.07,WSW,251,9.0,9.0,49,0.00,,,0.00,Wunderground v.1.15,2013-04-03 11:30:00,
2013-04-03 07:40:00,33.9,16.7,30.07,WNW,285,10.0,15.0,49,0.00,,,0.00,Wunderground v.1.15,2013-04-03 11:40:00,
2013-04-03 07:45:00,33.9,16.7,30.07,WSW,255,11.0,15.0,49,0.00,,,0.00,Wunderground v.1.15,2013-04-03 11:45:00,
2013-04-03 07:50:00,34.1,17.4,30.07,West,273,10.0,10.0,50,0.00,,,0.00,Wunderground v.1.15,2013-04-03 11:50:00,
2013-04-03 07:55:00,34.1,16.4,30.08,WNW,297,9.0,15.0,48,0.00,,,0.00,Wunderground v.1.15,2013-04-03 11:55:00,
2013-04-03 08:00:00,34.2,17.0,30.07,WNW,302,9.0,9.0,49,0.00,,,0.00,Wunderground v.1.15,2013-04-03 12:00:00,
2013-04-03 08:10:00,34.9,17.2,30.07,NW,308,7.0,21.0,48,0.00,,,0.00,Wunderground v.1.15,2013-04-03 12:10:00,
2013-04-03 08:15:00,35.1,17.4,30.07,North,1,7.0,21.0,48,0.00,,,0.00,Wunderground v.1.15,2013-04-03 12:15:00,
2013-04-03 08:20:00,35.0,17.3,30.07,WSW,256,9.0,21.0,48,0.00,,,0.00,Wunderground v.1.15,2013-04-03 12:20:00,
2013-04-03 08:25:00,35.0,17.3,30.07,South,189,10.0,21.0,48,0.00,,,0.00,Wunderground v.1.15,2013-04-03 12:25:00,
2013-04-03 08:35:00,35.2,16.0,30.07,WNW,293,10.0,21.0,45,0.00,,,0.00,Wunderground v.1.15,2013-04-03 12:35:00,
2013-04-03 08:40:00,35.7,17.9,30.08,NNW,342,8.0,21.0,48,0.00,,,0.00,Wunderground v.1.15,2013-04-03 12:40:00,
2013-04-03 08:45:00,35.3,16.6,30.07,WNW,303,10.0,21.0,46,0.00,,,0.00,Wunderground v.1.15,2013-04-03 12:45:00,
2013-04-03 08:50:00,35.7,17.9,30.07,NW,307,10.0,21.0,48,0.00,,,0.00,Wunderground v.1.15,2013-04-03 12:50:00,
2013-04-03 08:55:00,35.6,17.3,30.07,West,280,9.0,21.0,47,0.00,,,0.00,Wunderground v.1.15,2013-04-03 12:55:00,
2013-04-03 09:00:00,35.6,17.8,30.07,NW,306,10.0,24.0,48,0.00,,,0.00,Wunderground v.1.15,2013-04-03 13:00:00,
2013-04-03 09:10:00,35.9,18.6,30.06,WNW,292,10.0,10.0,49,0.00,,,0.00,Wunderground v.1.15,2013-04-03 13:10:00,
2013-04-03 09:15:00,36.4,18.1,30.06,West,278,9.0,24.0,47,0.00,,,0.00,Wunderground v.1.15,2013-04-03 13:15:00,
2013-04-03 09:20:00,36.5,18.2,30.07,WSW,248,8.0,8.0,47,0.00,,,0.00,Wunderground v.1.15,2013-04-03 13:20:00,
2013-04-03 09:25:00,36.1,17.3,30.06,WNW,288,9.0,11.0,46,0.00,,,0.00,Wunderground v.1.15,2013-04-03 13:25:00,
2013-04-03 09:30:00,35.8,17.5,30.06,NNW,333,11.0,11.0,47,0.00,,,0.00,Wunderground v.1.15,2013-04-03 13:30:00,
2013-04-03 09:35:00,36.2,17.4,30.06,WNW,286,11.0,14.0,46,0.00,,,0.00,Wunderground v.1.15,2013-04-03 13:35:00,
2013-04-03 09:40:00,36.4,17.6,30.06,WSW,252,10.0,24.0,46,0.00,,,0.00,Wunderground v.1.15,2013-04-03 13:40:00,
2013-04-03 09:50:00,36.7,18.3,30.06,West,280,10.0,10.0,47,0.00,,,0.00,Wunderground v.1.15,2013-04-03 13:50:00,
2013-04-03 09:55:00,36.8,17.4,30.06,West,259,9.0,24.0,45,0.00,,,0.00,Wunderground v.1.15,2013-04-03 13:55:00,
2013-04-03 10:00:00,37.0,17.1,30.06,West,278,10.0,21.0,44,0.00,,,0.00,Wunderground v.1.15,2013-04-03 14:00:00,
2013-04-03 10:10:00,36.9,17.5,30.05,WNW,296,9.0,21.0,45,0.00,,,0.00,Wunderground v.1.15,2013-04-03 14:10:00,
2013-04-03 10:20:00,37.6,17.6,30.05,WNW,302,9.0,21.0,44,0.00,,,0.00,Wunderground v.1.15,2013-04-03 14:20:00,
2013-04-03 10:25:00,37.9,16.8,30.05,WSW,240,8.0,21.0,42,0.00,,,0.00,Wunderground v.1.15,2013-04-03 14:25:00,
2013-04-03 10:30:00,37.7,17.2,30.05,SW,236,9.0,9.0,43,0.00,,,0.00,Wunderground v.1.15,2013-04-03 14:30:00,
2013-04-03 10:35:00,38.1,17.5,30.05,WNW,286,9.0,11.0,43,0.00,,,0.00,Wunderground v.1.15,2013-04-03 14:35:00,
2013-04-03 10:40:00,37.5,17.5,30.05,WNW,291,10.0,10.0,44,0.00,,,0.00,Wunderground v.1.15,2013-04-03 14:40:00,
2013-04-03 10:45:00,37.9,17.9,30.05,West,265,10.0,21.0,44,0.00,,,0.00,Wunderground v.1.15,2013-04-03 14:45:00,
2013-04-03 10:55:00,38.7,18.6,30.05,West,278,8.0,21.0,44,0.00,,,0.00,Wunderground v.1.15,2013-04-03 14:55:00,
2013-04-03 11:00:00,38.6,17.5,30.05,SSE,147,9.0,9.0,42,0.00,,,0.00,Wunderground v.1.15,2013-04-03 15:00:00,
2013-04-03 11:10:00,38.5,17.9,30.04,WNW,288,10.0,10.0,43,0.00,,,0.00,Wunderground v.1.15,2013-04-03 15:10:00,
2013-04-03 11:15:00,38.8,17.1,30.04,SW,231,9.0,24.0,41,0.00,,,0.00,Wunderground v.1.15,2013-04-03 15:15:00,
2013-04-03 11:25:00,38.8,17.1,30.04,WNW,303,10.0,24.0,41,0.00,,,0.00,Wunderground v.1.15,2013-04-03 15:25:00,
2013-04-03 11:30:00,39.0,17.8,30.04,WSW,251,10.0,24.0,42,0.00,,,0.00,Wunderground v.1.15,2013-04-03 15:30:00,
2013-04-03 11:35:00,39.3,17.5,30.03,WSW,248,9.0,24.0,41,0.00,,,0.00,Wunderground v.1.15,2013-04-03 15:35:00,
2013-04-03 11:40:00,39.0,17.3,30.04,West,274,10.0,24.0,41,0.00,,,0.00,Wunderground v.1.15,2013-04-03 15:40:00,
2013-04-03 11:45:00,39.0,17.3,30.03,WNW,287,11.0,24.0,41,0.00,,,0.00,Wunderground v.1.15,2013-04-03 15:45:00,
2013-04-03 11:50:00,39.5,17.1,30.03,WNW,297,11.0,24.0,40,0.00,,,0.00,Wunderground v.1.15,2013-04-03 15:50:00,
2013-04-03 11:55:00,40.0,18.2,30.03,SW,216,9.0,24.0,41,0.00,,,0.00,Wunderground v.1.15,2013-04-03 15:55:00,
2013-04-03 12:00:00,39.7,17.3,30.03,WNW,288,10.0,10.0,40,0.00,,,0.00,Wunderground v.1.15,2013-04-03 16:00:00,
2013-04-03 12:10:00,40.1,17.7,30.03,NNW,328,10.0,10.0,40,0.00,,,0.00,Wunderground v.1.15,2013-04-03 16:10:00,
2013-04-03 12:15:00,40.4,16.1,30.03,WNW,290,10.0,12.0,37,0.00,,,0.00,Wunderground v.1.15,2013-04-03 16:15:00,
2013-04-03 12:20:00,40.6,16.3,30.03,NW,326,9.0,22.0,37,0.00,,,0.00,Wunderground v.1.15,2013-04-03 16:20:00,
2013-04-03 12:25:00,40.6,18.7,30.03,WSW,247,10.0,22.0,41,0.00,,,0.00,Wunderground v.1.15,2013-04-03 16:25:00,
2013-04-03 12:30:00,41.0,17.9,30.02,WSW,240,10.0,22.0,39,0.00,,,0.00,Wunderground v.1.15,2013-04-03 16:30:00,
2013-04-03 12:35:00,41.2,16.9,30.03,SE,130,9.0,22.0,37,0.00,,,0.00,Wunderground v.1.15,2013-04-03 16:35:00,
2013-04-03 12:40:00,41.3,17.6,30.03,West,268,9.0,22.0,38,0.00,,,0.00,Wunderground v.1.15,2013-04-03 16:40:00,
2013-04-03 12:45:00,41.1,16.8,30.03,SW,234,9.0,22.0,37,0.00,,,0.00,Wunderground v.1.15,2013-04-03 16:45:00,
2013-04-03 12:50:00,40.8,15.9,30.03,West,274,10.0,10.0,36,0.00,,,0.00,Wunderground v.1.15,2013-04-03 16:50:00,
2013-04-03 13:00:00,41.2,16.9,30.02,NW,316,10.0,21.0,37,0.00,,,0.00,Wunderground v.1.15,2013-04-03 17:00:00,
2013-04-03 13:10:00,41.6,17.8,30.02,SSW,199,9.0,21.0,38,0.00,,,0.00,Wunderground v.1.15,2013-04-03 17:10:00,
2013-04-03 13:15:00,42.2,19.6,30.03,West,269,8.0,21.0,40,0.00,,,0.00,Wunderground v.1.15,2013-04-03 17:15:00,
2013-04-03 13:25:00,41.7,17.3,30.03,WSW,256,9.0,21.0,37,0.00,,,0.00,Wunderground v.1.15,2013-04-03 17:25:00,
2013-04-03 13:35:00,41.6,17.2,30.02,West,260,10.0,21.0,37,0.00,,,0.00,Wunderground v.1.15,2013-04-03 17:35:00,
2013-04-03 13:40:00,42.7,18.2,30.02,NW,315,8.0,8.0,37,0.00,,,0.00,Wunderground v.1.15,2013-04-03 17:40:00,
2013-04-03 13:45:00,42.9,17.7,30.02,WNW,292,8.0,21.0,36,0.00,,,0.00,Wunderground v.1.15,2013-04-03 17:45:00,
2013-04-03 13:55:00,42.7,18.2,30.02,NW,321,9.0,21.0,37,0.00,,,0.00,Wunderground v.1.15,2013-04-03 17:55:00,
2013-04-03 14:00:00,43.3,18.1,30.02,SSW,193,9.0,9.0,36,0.00,,,0.00,Wunderground v.1.15,2013-04-03 18:00:00,
2013-04-03 14:10:00,42.5,21.5,30.02,West,268,8.0,21.0,43,0.00,,,0.00,Wunderground v.1.15,2013-04-03 18:10:00,
2013-04-03 14:15:00,43.0,22.0,30.02,WSW,257,7.0,21.0,43,0.00,,,0.00,Wunderground v.1.15,2013-04-03 18:15:00,
2013-04-03 14:20:00,42.9,20.8,30.02,WSW,250,8.0,8.0,41,0.00,,,0.00,Wunderground v.1.15,2013-04-03 18:20:00,
2013-04-03 14:25:00,42.8,20.1,30.02,West,264,8.0,13.0,40,0.00,,,0.00,Wunderground v.1.15,2013-04-03 18:25:00,
2013-04-03 14:30:00,42.3,19.1,30.02,West,269,8.0,8.0,39,0.00,,,0.00,Wunderground v.1.15,2013-04-03 18:30:00,
2013-04-03 14:35:00,43.0,20.9,30.02,WNW,297,8.0,13.0,41,0.00,,,0.00,Wunderground v.1.15,2013-04-03 18:35:00,
2013-04-03 14:40:00,42.9,21.4,30.02,SW,236,8.0,8.0,42,0.00,,,0.00,Wunderground v.1.15,2013-04-03 18:40:00,
2013-04-03 14:50:00,42.9,24.0,30.01,West,262,9.0,21.0,47,0.00,,,0.00,Wunderground v.1.15,2013-04-03 18:50:00,
2013-04-03 14:55:00,42.7,25.3,30.01,SE,127,9.0,21.0,50,0.00,,,0.00,Wunderground v.1.15,2013-04-03 18:55:00,
2013-04-03 15:00:00,42.8,24.9,30.00,WNW,289,8.0,20.0,49,0.00,,,0.00,Wunderground v.1.15,2013-04-03 19:00:00,
2013-04-03 15:10:00,42.6,24.3,30.00,West,280,9.0,20.0,48,0.00,,,0.00,Wunderground v.1.15,2013-04-03 19:10:00,
2013-04-03 15:20:00,42.5,24.7,30.00,West,262,10.0,20.0,49,0.00,,,0.00,Wunderground v.1.15,2013-04-03 19:20:00,
2013-04-03 15:25:00,42.8,24.9,30.00,SSE,158,9.0,20.0,49,0.00,,,0.00,Wunderground v.1.15,2013-04-03 19:25:00,
2013-04-03 15:30:00,42.9,25.0,30.00,WSW,256,8.0,20.0,49,0.00,,,0.00,Wunderground v.1.15,2013-04-03 19:30:00,
2013-04-03 15:35:00,43.4,25.5,30.00,WSW,249,8.0,20.0,49,0.00,,,0.00,Wunderground v.1.15,2013-04-03 19:35:00,
2013-04-03 15:40:00,43.1,25.7,30.00,SW,232,8.0,8.0,50,0.00,,,0.00,Wunderground v.1.15,2013-04-03 19:40:00,
2013-04-03 15:50:00,42.8,25.9,30.00,South,184,8.0,8.0,51,0.00,,,0.00,Wunderground v.1.15,2013-04-03 19:50:00,
2013-04-03 15:55:00,42.5,25.1,30.00,West,264,8.0,20.0,50,0.00,,,0.00,Wunderground v.1.15,2013-04-03 19:55:00,
2013-04-03 16:00:00,42.5,25.6,30.00,West,261,9.0,9.0,51,0.00,,,0.00,Wunderground v.1.15,2013-04-03 20:00:00,
2013-04-03 16:10:00,43.2,26.3,30.00,West,271,7.0,7.0,51,0.00,,,0.00,Wunderground v.1.15,2013-04-03 20:10:00,
2013-04-03 16:15:00,43.0,25.6,30.00,WNW,302,8.0,8.0,50,0.00,,,0.00,Wunderground v.1.15,2013-04-03 20:15:00,
2013-04-03 16:20:00,43.1,26.2,30.00,West,279,8.0,24.0,51,0.00,,,0.00,Wunderground v.1.15,2013-04-03 20:20:00,
2013-04-03 16:25:00,42.9,25.5,30.00,West,275,9.0,24.0,50,0.00,,,0.00,Wunderground v.1.15,2013-04-03 20:25:00,
2013-04-03 16:30:00,43.1,25.7,30.00,WSW,253,9.0,9.0,50,0.00,,,0.00,Wunderground v.1.15,2013-04-03 20:30:00,
2013-04-03 16:35:00,43.0,25.6,29.99,West,262,8.0,24.0,50,0.00,,,0.00,Wunderground v.1.15,2013-04-03 20:35:00,
2013-04-03 16:40:00,43.2,25.8,29.99,West,262,8.0,24.0,50,0.00,,,0.00,Wunderground v.1.15,2013-04-03 20:40:00,
2013-04-03 16:45:00,43.6,26.6,30.00,WNW,286,8.0,24.0,51,0.00,,,0.00,Wunderground v.1.15,2013-04-03 20:45:00,
2013-04-03 16:50:00,43.2,26.3,30.00,NW,305,8.0,8.0,51,0.00,,,0.00,Wunderground v.1.15,2013-04-03 20:50:00,
2013-04-03 16:55:00,43.8,26.3,30.00,West,280,7.0,24.0,50,0.00,,,0.00,Wunderground v.1.15,2013-04-03 20:55:00,
2013-04-03 17:00:00,44.7,23.0,30.00,WSW,255,5.0,20.0,42,0.00,,,0.00,Wunderground v.1.15,2013-04-03 21:00:00,
2013-04-03 17:10:00,44.4,18.4,30.00,West,271,8.0,20.0,35,0.00,,,0.00,Wunderground v.1.15,2013-04-03 21:10:00,
2013-04-03 17:15:00,44.4,19.1,30.00,NNW,334,9.0,20.0,36,0.00,,,0.00,Wunderground v.1.15,2013-04-03 21:15:00,
2013-04-03 17:20:00,44.3,18.3,30.00,WSW,238,9.0,20.0,35,0.00,,,0.00,Wunderground v.1.15,2013-04-03 21:20:00,
2013-04-03 17:30:00,44.6,17.9,30.01,West,266,7.0,20.0,34,0.00,,,0.00,Wunderground v.1.15,2013-04-03 21:30:00,
2013-04-03 17:35:00,44.4,23.8,30.01,WNW,285,7.0,20.0,44,0.00,,,0.00,Wunderground v.1.15,2013-04-03 21:35:00,
2013-04-03 17:40:00,43.9,26.4,30.01,West,265,7.0,7.0,50,0.00,,,0.00,Wunderground v.1.15,2013-04-03 21:40:00,
2013-04-03 17:45:00,43.9,23.9,30.01,WNW,295,6.0,20.0,45,0.00,,,0.00,Wunderground v.1.15,2013-04-03 21:45:00,
2013-04-03 17:50:00,44.3,19.6,30.02,West,269,5.0,20.0,37,0.00,,,0.00,Wunderground v.1.15,2013-04-03 21:50:00,
2013-04-03 18:00:00,44.3,19.0,30.02,West,279,7.0,7.0,36,0.00,,,0.00,Wunderground v.1.15,2013-04-03 22:00:00,
2013-04-03 18:10:00,44.1,20.1,30.02,NW,323,6.0,6.0,38,0.00,,,0.00,Wunderground v.1.15,2013-04-03 22:10:00,
2013-04-03 18:15:00,44.0,20.0,30.02,North,359,6.0,17.0,38,0.00,,,0.00,Wunderground v.1.15,2013-04-03 22:15:00,
2013-04-03 18:25:00,43.7,19.1,30.03,WNW,284,6.0,17.0,37,0.00,,,0.00,Wunderground v.1.15,2013-04-03 22:25:00,
2013-04-03 18:35:00,43.3,18.1,30.03,WNW,291,7.0,17.0,36,0.00,,,0.00,Wunderground v.1.15,2013-04-03 22:35:00,
2013-04-03 18:40:00,43.2,18.0,30.03,West,274,6.0,17.0,36,0.00,,,0.00,Wunderground v.1.15,2013-04-03 22:40:00,
2013-04-03 18:45:00,43.0,18.5,30.04,West,269,8.0,17.0,37,0.00,,,0.00,Wunderground v.1.15,2013-04-03 22:45:00,
2013-04-03 18:50:00,42.7,18.2,30.04,WNW,283,8.0,17.0,37,0.00,,,0.00,Wunderground v.1.15,2013-04-03 22:50:00,
2013-04-03 18:55:00,42.4,17.9,30.05,NW,314,7.0,17.0,37,0.00,,,0.00,Wunderground v.1.15,2013-04-03 22:55:00,
2013-04-03 19:00:00,42.2,17.1,30.05,West,263,7.0,16.0,36,0.00,,,0.00,Wunderground v.1.15,2013-04-03 23:00:00,
2013-04-03 19:10:00,42.0,16.3,30.06,NW,321,7.0,7.0,35,0.00,,,0.00,Wunderground v.1.15,2013-04-03 23:10:00,
2013-04-03 19:15:00,41.9,16.2,30.06,West,281,7.0,16.0,35,0.00,,,0.00,Wunderground v.1.15,2013-04-03 23:15:00,
2013-04-03 19:20:00,41.7,16.7,30.06,West,267,6.0,6.0,36,0.00,,,0.00,Wunderground v.1.15,2013-04-03 23:20:00,
2013-04-03 19:25:00,41.6,16.6,30.06,NW,314,6.0,12.0,36,0.00,,,0.00,Wunderground v.1.15,2013-04-03 23:25:00,
2013-04-03 19:30:00,41.6,16.6,30.07,NW,311,7.0,16.0,36,0.00,,,0.00,Wunderground v.1.15,2013-04-03 23:30:00,
2013-04-03 19:40:00,41.3,16.9,30.07,NW,323,7.0,7.0,37,0.00,,,0.00,Wunderground v.1.15,2013-04-03 23:40:00,
2013-04-03 19:45:00,41.2,16.9,30.07,WNW,298,7.0,9.0,37,0.00,,,0.00,Wunderground v.1.15,2013-04-03 23:45:00,
2013-04-03 19:50:00,41.1,17.4,30.07,West,269,8.0,16.0,38,0.00,,,0.00,Wunderground v.1.15,2013-04-03 23:50:00,
2013-04-03 19:55:00,41.1,16.8,30.08,WNW,297,9.0,16.0,37,0.00,,,0.00,Wunderground v.1.15,2013-04-03 23:55:00,
2013-04-03 20:00:00,40.9,17.2,30.08,NW,319,9.0,9.0,38,0.00,,,0.00,Wunderground v.1.15,2013-04-04 00:00:00,
2013-04-03 20:10:00,40.7,17.6,30.10,NNW,346,7.0,19.0,39,0.00,,,0.00,Wunderground v.1.15,2013-04-04 00:10:00,
2013-04-03 20:15:00,40.7,16.4,30.10,West,280,8.0,19.0,37,0.00,,,0.00,Wunderground v.1.15,2013-04-04 00:15:00,
2013-04-03 20:20:00,40.7,17.0,30.10,NW,305,8.0,8.0,38,0.00,,,0.00,Wunderground v.1.15,2013-04-04 00:20:00,
2013-04-03 20:25:00,40.5,16.9,30.11,West,280,7.0,19.0,38,0.00,,,0.00,Wunderground v.1.15,2013-04-04 00:25:00,
2013-04-03 20:30:00,40.2,17.8,30.11,WNW,300,6.0,19.0,40,0.00,,,0.00,Wunderground v.1.15,2013-04-04 00:30:00,
2013-04-03 20:35:00,40.1,17.1,30.11,WNW,292,6.0,19.0,39,0.00,,,0.00,Wunderground v.1.15,2013-04-04 00:35:00,
2013-04-03 20:40:00,40.1,17.1,30.12,WNW,290,7.0,19.0,39,0.00,,,0.00,Wunderground v.1.15,2013-04-04 00:40:00,
2013-04-03 20:45:00,40.0,17.6,30.12,NW,311,7.0,19.0,40,0.00,,,0.00,Wunderground v.1.15,2013-04-04 00:45:00,
2013-04-03 20:50:00,40.0,18.2,30.13,NW,317,6.0,6.0,41,0.00,,,0.00,Wunderground v.1.15,2013-04-04 00:50:00,
2013-04-03 20:55:00,39.8,16.8,30.13,WNW,300,7.0,9.0,39,0.00,,,0.00,Wunderground v.1.15,2013-04-04 00:55:00,
2013-04-03 21:00:00,39.8,15.6,30.13,WNW,303,8.0,8.0,37,0.00,,,0.00,Wunderground v.1.15,2013-04-04 01:00:00,
2013-04-03 21:10:00,39.6,16.0,30.14,NW,306,9.0,9.0,38,0.00,,,0.00,Wunderground v.1.15,2013-04-04 01:10:00,
2013-04-03 21:15:00,39.5,16.6,30.14,NW,321,7.0,10.0,39,0.00,,,0.00,Wunderground v.1.15,2013-04-04 01:15:00,
2013-04-03 21:20:00,39.3,18.1,30.14,WSW,254,7.0,7.0,42,0.00,,,0.00,Wunderground v.1.15,2013-04-04 01:20:00,
2013-04-03 21:25:00,39.2,17.4,30.14,WNW,289,9.0,9.0,41,0.00,,,0.00,Wunderground v.1.15,2013-04-04 01:25:00,
2013-04-03 21:30:00,38.9,17.2,30.15,NW,311,10.0,10.0,41,0.00,,,0.00,Wunderground v.1.15,2013-04-04 01:30:00,
2013-04-03 21:35:00,38.9,17.2,30.15,West,263,10.0,16.0,41,0.00,,,0.00,Wunderground v.1.15,2013-04-04 01:35:00,
2013-04-03 21:40:00,38.8,17.1,30.15,NW,316,10.0,10.0,41,0.00,,,0.00,Wunderground v.1.15,2013-04-04 01:40:00,
2013-04-03 21:45:00,38.7,17.0,30.15,WNW,294,10.0,16.0,41,0.00,,,0.00,Wunderground v.1.15,2013-04-04 01:45:00,
2013-04-03 21:55:00,38.3,17.2,30.15,WNW,297,8.0,16.0,42,0.00,,,0.00,Wunderground v.1.15,2013-04-04 01:55:00,
2013-04-03 22:00:00,38.2,16.0,30.16,West,272,8.0,8.0,40,0.00,,,0.00,Wunderground v.1.15,2013-04-04 02:00:00,
2013-04-03 22:10:00,37.9,16.3,30.16,WNW,303,9.0,21.0,41,0.00,,,0.00,Wunderground v.1.15,2013-04-04 02:10:00,
2013-04-03 22:15:00,37.9,15.7,30.16,West,271,8.0,21.0,40,0.00,,,0.00,Wunderground v.1.15,2013-04-04 02:15:00,
2013-04-03 22:25:00,37.6,16.0,30.17,West,265,8.0,21.0,41,0.00,,,0.00,Wunderground v.1.15,2013-04-04 02:25:00,
2013-04-03 22:30:00,37.5,16.5,30.17,WNW,297,7.0,21.0,42,0.00,,,0.00,Wunderground v.1.15,2013-04-04 02:30:00,
2013-04-03 22:35:00,37.4,16.4,30.17,NNW,332,8.0,21.0,42,0.00,,,0.00,Wunderground v.1.15,2013-04-04 02:35:00,
2013-04-03 22:40:00,37.3,16.3,30.17,WNW,283,9.0,9.0,42,0.00,,,0.00,Wunderground v.1.15,2013-04-04 02:40:00,
2013-04-03 22:45:00,37.2,16.7,30.17,West,259,8.0,21.0,43,0.00,,,0.00,Wunderground v.1.15,2013-04-04 02:45:00,
2013-04-03 22:50:00,37.1,17.2,30.17,WSW,237,7.0,7.0,44,0.00,,,0.00,Wunderground v.1.15,2013-04-04 02:50:00,
2013-04-03 23:00:00,37.0,17.6,30.17,NW,322,7.0,19.0,45,0.00,,,0.00,Wunderground v.1.15,2013-04-04 03:00:00,
2013-04-03 23:10:00,36.8,16.4,30.18,WNW,303,8.0,19.0,43,0.00,,,0.00,Wunderground v.1.15,2013-04-04 03:10:00,
2013-04-03 23:15:00,36.8,16.9,30.18,WSW,256,9.0,19.0,44,0.00,,,0.00,Wunderground v.1.15,2013-04-04 03:15:00,
2013-04-03 23:25:00,36.5,16.1,30.18,WNW,283,8.0,19.0,43,0.00,,,0.00,Wunderground v.1.15,2013-04-04 03:25:00,
2013-04-03 23:35:00,36.4,16.0,30.19,WNW,293,8.0,9.0,43,0.00,,,0.00,Wunderground v.1.15,2013-04-04 03:35:00,
2013-04-03 23:40:00,36.3,16.4,30.19,WNW,293,8.0,8.0,44,0.00,,,0.00,Wunderground v.1.15,2013-04-04 03:40:00,
2013-04-03 23:45:00,36.2,16.9,30.19,West,274,7.0,9.0,45,0.00,,,0.00,Wunderground v.1.15,2013-04-04 03:45:00,
2013-04-03 23:55:00,36.1,16.3,30.20,NNW,328,8.0,8.0,44,0.00,,,0.00,Wunderground v.1.15,2013-04-04 03:55:00,